Location: Dodge City Community College Clyde Tombaugh Astronomy Center
(37.7756°N, 100.0412°W)
Time: 12:42:35
(UTC+00:00)

ISS - Visible Passes

Search period start: 28 November 2022 00:00
Search period end: 08 December 2022 00:00
Orbit: 411 x 420 km, 51.6° (Epoch: 28 November)

Date Brightness Start Highest point End Pass type
(mag) Time Alt. Az. Time Alt. Az. Time Alt. Az.
02 Dec -1.6 00:38:24 10° NNW 00:39:48 14° NNE 00:39:48 14° NNE visible
02 Dec -1.5 23:50:17 10° N 23:51:12 11° NNE 23:52:07 10° NNE visible
03 Dec -1.2 01:25:28 10° NW 01:26:10 15° NNW 01:26:10 15° NNW visible
04 Dec -2.6 00:36:52 10° NNW 00:39:44 26° NNE 00:39:45 26° NNE visible
04 Dec -2.1 23:48:20 10° NNW 23:50:43 18° NNE 23:53:05 10° ENE visible
05 Dec -2.2 01:24:25 10° NW 01:26:26 33° WNW 01:26:26 33° WNW visible
06 Dec -3.9 00:35:33 10° NW 00:38:52 66° NE 00:40:30 27° ESE visible
06 Dec -3.2 23:46:48 10° NW 23:49:55 37° NNE 23:53:02 10° ESE visible
07 Dec -1.2 01:23:55 10° W 01:26:27 20° SW 01:27:54 16° SSW visible
